This demonstration page uses our WeatherBlox Daily Observations layout. Learn more.

Left ArrowRight Arrow

Hourly Observations for December 5, 2022

Temp ( °F °C ) Dew Point ( °F °C ) Humidity (%) Winds ( mph kmh ) Pressure ( in mb ) Visibility ( mi km ) Precip ( " mm )
12:54 am 00:54 Clear 39 3.9 35 1.7 86 86 NNE 6 9 30.20 1023 10 16 0.00 0.00
1:54 am 01:54 Clear 36 2.2 33 0.6 89 89 undefined N/A 30.19 1022 10 16 0.00 0.00
2:54 am 02:54 Clear 37 2.8 34 1.1 89 89 undefined N/A 30.20 1023 10 16 0.00 0.00
3:54 am 03:54 Clear 36 2.2 33 0.6 89 89 undefined N/A 30.19 1022 10 16 0.00 0.00
4:54 am 04:54 Clear 36 2.2 33 0.6 89 89 undefined N/A 30.20 1023 10 16 0.00 0.00
5:54 am 05:54 Clear 35 1.7 33 0.6 92 92 undefined N/A 30.20 1023 10 16 0.00 0.00
6:54 am 06:54 Clear 34 1.1 32 0 92 92 undefined N/A 30.21 1023 10 16 0.00 0.00
7:54 am 07:54 Mostly Cloudy 38 3.3 35 1.7 89 89 undefined N/A 30.23 1024 10 16 0.00 0.00
8:54 am 08:54 Mostly Sunny 43 6.1 39 3.9 86 86 undefined N/A 30.24 1024 10 16 0.00 0.00
9:54 am 09:54 Sunny 48 8.9 41 5 76 76 NNE 6 9 30.24 1024 10 16 0.00 0.00
10:54 am 10:54 Sunny 52 11.1 42 5.6 69 69 NE 8 13 30.24 1024 10 16 0.00 0.00
11:54 am 11:54 Sunny 56 13.3 43 6.1 62 62 NE 7 11 30.21 1023 10 16 0.00 0.00
12:54 pm 12:54 Cloudy 58 14.4 44 6.7 60 60 VRB 7 11 30.20 1023 10 16 0.00 0.00
1:54 pm 13:54 Mostly Cloudy 59 15 45 7.2 60 60 VRB 7 11 30.18 1022 10 16 0.00 0.00
2:54 pm 14:54 Sunny 58 14.4 46 7.8 65 65 ENE 7 11 30.18 1022 10 16 0.00 0.00
3:54 pm 15:54 Mostly Sunny 58 14.4 47 8.3 67 67 E 5 7 30.18 1022 10 16 0.00 0.00
4:54 pm 16:54 Mostly Cloudy 55 12.8 47 8.3 74 74 NE 6 9 30.18 1022 10 16 0.00 0.00
5:54 pm 17:54 Mostly Cloudy 53 11.7 47 8.3 80 80 NE 3 6 30.19 1023 10 16 0.00 0.00
6:54 pm 18:54 Mostly Clear 52 11.1 47 8.3 83 83 Calm 30.19 1022 10 16 0.00 0.00
7:54 pm 19:54 Mostly Cloudy 52 11.1 48 8.9 86 86 N 6 9 30.22 1023 10 16 0.00 0.00
8:54 pm 20:54 Cloudy 52 11.1 48 8.9 86 86 NNE 5 7 30.21 1023 10 16 0.00 0.00
9:54 pm 21:54 Cloudy 52 11.1 47 8.3 83 83 N 6 9 30.21 1023 10 16 0.00 0.00
10:54 pm 22:54 Cloudy 52 11.1 47 8.3 83 83 N 6 9 30.22 1023 10 16 0.00 0.00
11:54 pm 23:54 Cloudy 52 11.1 47 8.3 83 83 NNE 5 7 30.21 1023 10 16 0.00 0.00

Powered by AerisWeather